Time,TemperatureF,DewpointF,PressureIn,WindDirection,WindDirectionDegrees,WindSpeedMPH,WindSpeedGustMPH,Humidity,HourlyPrecipIn,Conditions,Clouds,dailyrainin,SolarRadiationWatts/m^2,SoftwareType,DateUTC
2013-03-01 00:00:00,51.9,50.5,30.46,SW,235,3.0,3.0,95,0.00,,,0.00,0,Wunderground v.1.15,2013-03-01 08:00:00,
2013-03-01 00:05:00,51.9,50.5,30.46,SW,235,3.0,3.0,95,0.00,,,0.00,0,Wunderground v.1.15,2013-03-01 08:05:00,
2013-03-01 00:15:00,51.9,50.5,30.46,SW,236,2.0,3.0,95,0.00,,,0.00,0,Wunderground v.1.15,2013-03-01 08:15:00,
2013-03-01 00:20:00,51.9,50.5,30.46,WSW,237,2.0,3.0,95,0.00,,,0.00,0,Wunderground v.1.15,2013-03-01 08:20:00,
2013-03-01 00:30:00,51.9,50.5,30.46,SW,235,3.0,3.0,95,0.00,,,0.00,0,Wunderground v.1.15,2013-03-01 08:30:00,
2013-03-01 00:35:00,51.8,50.4,30.46,SW,236,2.0,3.0,95,0.00,,,0.00,0,Wunderground v.1.15,2013-03-01 08:35:00,
2013-03-01 00:45:00,51.7,50.6,30.46,SW,235,0.0,1.0,96,0.00,,,0.00,0,Wunderground v.1.15,2013-03-01 08:45:00,
2013-03-01 00:50:00,51.6,50.5,30.47,SW,236,0.0,0.0,96,0.00,,,0.00,0,Wunderground v.1.15,2013-03-01 08:50:00,
2013-03-01 01:00:00,51.5,50.4,30.47,SW,235,0.0,0.0,96,0.00,,,0.00,0,Wunderground v.1.15,2013-03-01 09:00:00,
2013-03-01 01:05:00,51.5,50.4,30.47,SW,235,0.0,0.0,96,0.00,,,0.00,0,Wunderground v.1.15,2013-03-01 09:05:00,
2013-03-01 01:15:00,51.5,50.4,30.47,SW,235,0.0,0.0,96,0.00,,,0.00,0,Wunderground v.1.15,2013-03-01 09:15:00,
2013-03-01 01:20:00,51.4,50.3,30.47,SW,236,0.0,0.0,96,0.00,,,0.00,0,Wunderground v.1.15,2013-03-01 09:20:00,
2013-03-01 01:25:00,51.2,49.8,30.47,SW,236,0.0,0.0,95,0.00,,,0.00,0,Wunderground v.1.15,2013-03-01 09:25:00,
2013-03-01 01:35:00,51.0,49.9,30.47,SW,236,0.0,0.0,96,0.00,,,0.00,0,Wunderground v.1.15,2013-03-01 09:35:00,
2013-03-01 01:45:00,51.1,50.0,30.47,SW,235,0.0,0.0,96,0.00,,,0.00,0,Wunderground v.1.15,2013-03-01 09:45:00,
2013-03-01 01:50:00,51.2,50.1,30.47,SW,235,0.0,0.0,96,0.00,,,0.00,0,Wunderground v.1.15,2013-03-01 09:50:00,
2013-03-01 02:00:00,50.9,49.8,30.47,WSW,237,0.0,0.0,96,0.00,,,0.00,0,Wunderground v.1.15,2013-03-01 10:00:00,
2013-03-01 02:10:00,50.6,49.5,30.47,SW,235,0.0,0.0,96,0.00,,,0.00,0,Wunderground v.1.15,2013-03-01 10:10:00,
2013-03-01 02:20:00,50.6,49.5,30.47,SW,235,0.0,0.0,96,0.00,,,0.00,0,Wunderground v.1.15,2013-03-01 10:20:00,
2013-03-01 02:25:00,50.6,49.5,30.46,SW,235,0.0,0.0,96,0.00,,,0.00,0,Wunderground v.1.15,2013-03-01 10:25:00,
2013-03-01 02:35:00,50.1,48.7,30.46,SW,235,0.0,0.0,95,0.00,,,0.00,0,Wunderground v.1.15,2013-03-01 10:35:00,
2013-03-01 02:50:00,49.8,48.7,30.46,SW,235,0.0,0.0,96,0.00,,,0.00,0,Wunderground v.1.15,2013-03-01 10:50:00,
2013-03-01 02:55:00,49.8,48.7,30.46,SW,234,0.0,0.0,96,0.00,,,0.00,0,Wunderground v.1.15,2013-03-01 10:55:00,
2013-03-01 03:00:00,49.9,48.8,30.46,SW,234,0.0,0.0,96,0.00,,,0.00,0,Wunderground v.1.15,2013-03-01 11:00:00,
2013-03-01 03:10:00,50.3,49.2,30.46,SW,236,0.0,0.0,96,0.00,,,0.00,0,Wunderground v.1.15,2013-03-01 11:10:00,
2013-03-01 03:15:00,50.6,49.8,30.46,SW,235,0.0,0.0,97,0.00,,,0.00,0,Wunderground v.1.15,2013-03-01 11:15:00,
2013-03-01 03:25:00,50.5,49.4,30.46,SW,235,0.0,0.0,96,0.00,,,0.00,0,Wunderground v.1.15,2013-03-01 11:25:00,
2013-03-01 03:30:00,50.1,49.0,30.46,SW,236,0.0,0.0,96,0.00,,,0.00,0,Wunderground v.1.15,2013-03-01 11:30:00,
2013-03-01 03:40:00,49.5,48.4,30.46,SW,235,0.0,0.0,96,0.00,,,0.00,0,Wunderground v.1.15,2013-03-01 11:40:00,
2013-03-01 03:50:00,48.8,47.4,30.46,SW,236,0.0,0.0,95,0.00,,,0.00,0,Wunderground v.1.15,2013-03-01 11:50:00,
2013-03-01 04:00:00,48.3,47.2,30.46,SW,235,0.0,0.0,96,0.00,,,0.00,0,Wunderground v.1.15,2013-03-01 12:00:00,
2013-03-01 04:05:00,48.0,46.9,30.46,SW,236,0.0,0.0,96,0.00,,,0.00,0,Wunderground v.1.15,2013-03-01 12:05:00,
2013-03-01 04:10:00,47.8,46.7,30.46,SW,235,0.0,0.0,96,0.00,,,0.00,0,Wunderground v.1.15,2013-03-01 12:10:00,
2013-03-01 04:20:00,47.8,46.7,30.45,SW,236,2.0,3.0,96,0.00,,,0.00,0,Wunderground v.1.15,2013-03-01 12:20:00,
2013-03-01 04:30:00,47.8,46.7,30.45,SW,235,2.0,2.0,96,0.00,,,0.00,0,Wunderground v.1.15,2013-03-01 12:30:00,
2013-03-01 04:35:00,47.7,46.6,30.45,SW,234,0.0,2.0,96,0.00,,,0.00,0,Wunderground v.1.15,2013-03-01 12:35:00,
2013-03-01 04:45:00,47.4,46.3,30.45,SW,233,0.0,0.0,96,0.00,,,0.00,0,Wunderground v.1.15,2013-03-01 12:45:00,
2013-03-01 04:55:00,47.3,46.2,30.45,SW,235,1.0,2.0,96,0.00,,,0.00,0,Wunderground v.1.15,2013-03-01 12:55:00,
2013-03-01 05:05:00,47.2,46.1,30.45,SW,235,1.0,2.0,96,0.00,,,0.00,0,Wunderground v.1.15,2013-03-01 13:05:00,
2013-03-01 05:10:00,47.2,46.1,30.45,SW,235,1.0,3.0,96,0.00,,,0.00,0,Wunderground v.1.15,2013-03-01 13:10:00,
2013-03-01 05:20:00,47.2,46.1,30.45,SW,236,4.0,4.0,96,0.00,,,0.00,0,Wunderground v.1.15,2013-03-01 13:20:00,
2013-03-01 05:25:00,47.3,46.2,30.45,SW,235,3.0,5.0,96,0.00,,,0.00,0,Wunderground v.1.15,2013-03-01 13:25:00,
2013-03-01 05:35:00,47.2,46.1,30.45,North,359,5.0,5.0,96,0.00,,,0.00,0,Wunderground v.1.15,2013-03-01 13:35:00,
2013-03-01 05:45:00,47.6,46.8,30.45,North,357,5.0,5.0,97,0.00,,,0.00,0,Wunderground v.1.15,2013-03-01 13:45:00,
2013-03-01 05:55:00,48.0,47.2,30.45,North,356,4.0,5.0,97,0.00,,,0.00,0,Wunderground v.1.15,2013-03-01 13:55:00,
2013-03-01 06:00:00,48.0,47.2,30.45,North,356,4.0,4.0,97,0.00,,,0.01,0,Wunderground v.1.15,2013-03-01 14:00:00,
2013-03-01 06:05:00,47.9,47.1,30.45,North,358,4.0,4.0,97,0.00,,,0.01,0,Wunderground v.1.15,2013-03-01 14:05:00,
2013-03-01 06:15:00,48.0,47.2,30.45,North,356,4.0,4.0,97,0.00,,,0.01,0,Wunderground v.1.15,2013-03-01 14:15:00,
2013-03-01 06:25:00,48.1,47.3,30.45,North,352,3.0,4.0,97,0.00,,,0.01,0,Wunderground v.1.15,2013-03-01 14:25:00,
2013-03-01 06:35:00,47.9,47.1,30.44,North,358,2.0,4.0,97,0.00,,,0.01,0,Wunderground v.1.15,2013-03-01 14:35:00,
2013-03-01 06:40:00,47.8,47.0,30.44,North,359,1.0,1.0,97,0.00,,,0.01,0,Wunderground v.1.15,2013-03-01 14:40:00,
2013-03-01 06:50:00,47.5,46.7,30.44,North,357,0.0,3.0,97,0.00,,,0.01,7,Wunderground v.1.15,2013-03-01 14:50:00,
2013-03-01 06:55:00,47.3,46.5,30.44,North,1,1.0,3.0,97,0.00,,,0.01,12,Wunderground v.1.15,2013-03-01 14:55:00,
2013-03-01 07:00:00,47.3,46.5,30.44,North,357,1.0,2.0,97,0.00,,,0.01,18,Wunderground v.1.15,2013-03-01 15:00:00,
2013-03-01 07:10:00,47.4,46.6,30.43,North,357,1.0,1.0,97,0.00,,,0.01,28,Wunderground v.1.15,2013-03-01 15:10:00,
2013-03-01 07:15:00,47.6,46.8,30.43,North,2,1.0,1.0,97,0.00,,,0.01,49,Wunderground v.1.15,2013-03-01 15:15:00,
2013-03-01 07:25:00,47.9,47.1,30.44,North,359,1.0,1.0,97,0.00,,,0.01,67,Wunderground v.1.15,2013-03-01 15:25:00,
2013-03-01 07:35:00,48.8,48.3,30.44,North,356,0.0,2.0,98,0.00,,,0.01,93,Wunderground v.1.15,2013-03-01 15:35:00,
2013-03-01 07:45:00,50.8,50.3,30.44,North,355,1.0,1.0,98,0.00,,,0.01,123,Wunderground v.1.15,2013-03-01 15:45:00,
2013-03-01 07:55:00,51.2,50.7,30.44,North,357,0.0,0.0,98,0.00,,,0.01,156,Wunderground v.1.15,2013-03-01 15:55:00,
2013-03-01 08:05:00,51.3,50.5,30.43,North,356,0.0,0.0,97,0.00,,,0.01,186,Wunderground v.1.15,2013-03-01 16:05:00,
2013-03-01 08:10:00,52.6,52.1,30.43,North,352,0.0,0.0,98,0.00,,,0.01,204,Wunderground v.1.15,2013-03-01 16:10:00,
2013-03-01 08:20:00,54.9,54.3,30.44,North,352,0.0,0.0,98,0.00,,,0.01,229,Wunderground v.1.15,2013-03-01 16:20:00,
2013-03-01 08:25:00,54.1,53.3,30.43,North,352,1.0,1.0,97,0.00,,,0.01,246,Wunderground v.1.15,2013-03-01 16:25:00,
2013-03-01 08:35:00,55.4,54.8,30.43,North,360,0.0,2.0,98,0.00,,,0.01,276,Wunderground v.1.15,2013-03-01 16:35:00,
2013-03-01 08:45:00,56.3,55.2,30.43,North,355,2.0,3.0,96,0.00,,,0.01,306,Wunderground v.1.15,2013-03-01 16:45:00,
2013-03-01 08:50:00,56.0,54.6,30.43,North,360,3.0,3.0,95,0.00,,,0.01,322,Wunderground v.1.15,2013-03-01 16:50:00,
2013-03-01 09:00:00,55.3,53.3,30.43,North,359,3.0,3.0,93,0.00,,,0.01,357,Wunderground v.1.15,2013-03-01 17:00:00,
2013-03-01 09:05:00,55.4,53.7,30.43,North,354,4.0,5.0,94,0.00,,,0.01,378,Wunderground v.1.15,2013-03-01 17:05:00,
2013-03-01 09:15:00,57.1,55.1,30.44,North,359,4.0,6.0,93,0.00,,,0.01,399,Wunderground v.1.15,2013-03-01 17:15:00,
2013-03-01 09:20:00,57.5,55.2,30.43,NNE,16,5.0,5.0,92,0.00,,,0.01,431,Wunderground v.1.15,2013-03-01 17:20:00,
2013-03-01 09:30:00,58.6,55.7,30.43,SSW,213,4.0,4.0,90,0.00,,,0.01,438,Wunderground v.1.15,2013-03-01 17:30:00,
2013-03-01 09:40:00,59.2,55.6,30.42,NE,41,4.0,4.0,88,0.00,,,0.01,475,Wunderground v.1.15,2013-03-01 17:40:00,
2013-03-01 09:50:00,60.8,56.3,30.42,NE,37,2.0,2.0,85,0.00,,,0.01,501,Wunderground v.1.15,2013-03-01 17:50:00,
2013-03-01 10:00:00,62.4,56.5,30.42,NE,35,2.0,2.0,81,0.00,,,0.01,527,Wunderground v.1.15,2013-03-01 18:00:00,
2013-03-01 10:10:00,63.1,55.8,30.42,NNW,345,4.0,6.0,77,0.00,,,0.01,548,Wunderground v.1.15,2013-03-01 18:10:00,
2013-03-01 10:20:00,62.0,54.0,30.41,NNW,334,7.0,9.0,75,0.00,,,0.01,570,Wunderground v.1.15,2013-03-01 18:20:00,
2013-03-01 10:30:00,61.2,54.3,30.41,NNW,345,8.0,10.0,78,0.00,,,0.01,592,Wunderground v.1.15,2013-03-01 18:30:00,
2013-03-01 10:40:00,61.3,54.0,30.41,North,3,8.0,8.0,77,0.00,,,0.01,612,Wunderground v.1.15,2013-03-01 18:40:00,
2013-03-01 10:50:00,62.4,54.7,30.40,SSW,213,7.0,9.0,76,0.00,,,0.01,631,Wunderground v.1.15,2013-03-01 18:50:00,
2013-03-01 11:00:00,63.2,54.8,30.40,North,4,8.0,9.0,74,0.00,,,0.01,649,Wunderground v.1.15,2013-03-01 19:00:00,
2013-03-01 11:05:00,63.7,55.3,30.40,North,3,7.0,9.0,74,0.00,,,0.01,657,Wunderground v.1.15,2013-03-01 19:05:00,
2013-03-01 11:15:00,64.4,54.8,30.40,North,3,7.0,9.0,71,0.00,,,0.01,673,Wunderground v.1.15,2013-03-01 19:15:00,
2013-03-01 11:25:00,64.9,55.3,30.40,NNW,346,7.0,7.0,71,0.00,,,0.01,686,Wunderground v.1.15,2013-03-01 19:25:00,
2013-03-01 11:35:00,66.3,55.8,30.40,NNE,17,6.0,6.0,69,0.00,,,0.01,700,Wunderground v.1.15,2013-03-01 19:35:00,
2013-03-01 11:45:00,67.0,55.7,30.39,North,1,6.0,6.0,67,0.00,,,0.01,710,Wunderground v.1.15,2013-03-01 19:45:00,
2013-03-01 11:50:00,67.2,55.5,30.39,North,359,6.0,6.0,66,0.00,,,0.01,715,Wunderground v.1.15,2013-03-01 19:50:00,
2013-03-01 12:00:00,67.7,55.1,30.38,North,1,5.0,8.0,64,0.00,,,0.01,724,Wunderground v.1.15,2013-03-01 20:00:00,
2013-03-01 12:10:00,68.1,54.6,30.37,NNW,339,6.0,6.0,62,0.00,,,0.01,728,Wunderground v.1.15,2013-03-01 20:10:00,
2013-03-01 12:20:00,68.8,55.2,30.36,NNE,20,7.0,9.0,62,0.00,,,0.01,733,Wunderground v.1.15,2013-03-01 20:20:00,
2013-03-01 12:25:00,69.7,55.2,30.36,North,359,6.0,9.0,60,0.00,,,0.01,735,Wunderground v.1.15,2013-03-01 20:25:00,
2013-03-01 12:35:00,71.0,55.5,30.35,North,1,7.0,7.0,58,0.00,,,0.01,738,Wunderground v.1.15,2013-03-01 20:35:00,
2013-03-01 12:40:00,72.1,55.5,30.35,NNE,20,6.0,6.0,56,0.00,,,0.01,735,Wunderground v.1.15,2013-03-01 20:40:00,
2013-03-01 12:45:00,73.0,54.9,30.35,North,8,5.0,6.0,53,0.00,,,0.01,737,Wunderground v.1.15,2013-03-01 20:45:00,
2013-03-01 12:55:00,73.4,53.6,30.34,North,355,6.0,7.0,50,0.00,,,0.01,738,Wunderground v.1.15,2013-03-01 20:55:00,
2013-03-01 13:05:00,73.3,53.0,30.33,NNE,22,7.0,9.0,49,0.00,,,0.01,735,Wunderground v.1.15,2013-03-01 21:05:00,
2013-03-01 13:15:00,75.0,52.8,30.32,NE,47,3.0,7.0,46,0.00,,,0.01,731,Wunderground v.1.15,2013-03-01 21:15:00,
2013-03-01 13:20:00,75.7,52.8,30.32,NE,40,4.0,4.0,45,0.00,,,0.01,719,Wunderground v.1.15,2013-03-01 21:20:00,
2013-03-01 13:30:00,76.4,53.5,30.32,North,353,4.0,4.0,45,0.00,,,0.01,708,Wunderground v.1.15,2013-03-01 21:30:00,
2013-03-01 13:35:00,76.1,53.2,30.32,NNW,332,4.0,4.0,45,0.00,,,0.01,705,Wunderground v.1.15,2013-03-01 21:35:00,
2013-03-01 13:40:00,75.8,53.5,30.31,NNW,347,2.0,2.0,46,0.00,,,0.01,705,Wunderground v.1.15,2013-03-01 21:40:00,
2013-03-01 13:50:00,76.3,52.8,30.30,SSW,213,4.0,7.0,44,0.00,,,0.01,671,Wunderground v.1.15,2013-03-01 21:50:00,
2013-03-01 14:00:00,75.6,52.1,30.30,NNE,27,6.0,6.0,44,0.00,,,0.01,687,Wunderground v.1.15,2013-03-01 22:00:00,
2013-03-01 14:10:00,75.6,53.4,30.30,NNW,338,8.0,8.0,46,0.00,,,0.01,670,Wunderground v.1.15,2013-03-01 22:10:00,
2013-03-01 14:15:00,75.0,54.0,30.29,North,8,8.0,8.0,48,0.00,,,0.01,652,Wunderground v.1.15,2013-03-01 22:15:00,
2013-03-01 14:25:00,74.5,53.5,30.29,NNW,335,8.0,11.0,48,0.00,,,0.01,643,Wunderground v.1.15,2013-03-01 22:25:00,
2013-03-01 14:35:00,74.0,53.1,30.29,North,357,9.0,9.0,48,0.00,,,0.01,621,Wunderground v.1.15,2013-03-01 22:35:00,
2013-03-01 14:45:00,74.3,52.2,30.28,North,2,9.0,10.0,46,0.00,,,0.01,599,Wunderground v.1.15,2013-03-01 22:45:00,
2013-03-01 14:55:00,74.5,51.8,30.28,North,353,9.0,10.0,45,0.00,,,0.01,534,Wunderground v.1.15,2013-03-01 22:55:00,
2013-03-01 15:00:00,74.3,51.6,30.28,NNW,335,9.0,11.0,45,0.00,,,0.01,510,Wunderground v.1.15,2013-03-01 23:00:00,
2013-03-01 15:10:00,73.9,51.2,30.28,NNW,336,10.0,10.0,45,0.00,,,0.01,550,Wunderground v.1.15,2013-03-01 23:10:00,
2013-03-01 15:15:00,73.8,50.5,30.28,NNW,333,9.0,11.0,44,0.00,,,0.01,543,Wunderground v.1.15,2013-03-01 23:15:00,
2013-03-01 15:25:00,73.4,50.2,30.28,NW,323,10.0,10.0,44,0.00,,,0.01,517,Wunderground v.1.15,2013-03-01 23:25:00,
2013-03-01 15:35:00,73.4,50.8,30.28,NNE,13,9.0,9.0,45,0.00,,,0.01,494,Wunderground v.1.15,2013-03-01 23:35:00,
2013-03-01 15:40:00,73.7,50.4,30.28,NNW,329,9.0,9.0,44,0.00,,,0.01,387,Wunderground v.1.15,2013-03-01 23:40:00,
2013-03-01 15:50:00,73.9,51.2,30.27,North,10,7.0,7.0,45,0.00,,,0.01,420,Wunderground v.1.15,2013-03-01 23:50:00,
2013-03-01 15:55:00,74.2,50.9,30.27,North,352,6.0,8.0,44,0.00,,,0.01,418,Wunderground v.1.15,2013-03-01 23:55:00,
2013-03-01 16:05:00,74.7,50.7,30.27,North,353,4.0,5.0,43,0.00,,,0.01,401,Wunderground v.1.15,2013-03-02 00:05:00,
2013-03-01 16:10:00,74.2,52.1,30.26,NNW,348,4.0,4.0,46,0.00,,,0.01,404,Wunderground v.1.15,2013-03-02 00:10:00,
2013-03-01 16:15:00,72.7,51.3,30.26,North,351,2.0,4.0,47,0.00,,,0.01,390,Wunderground v.1.15,2013-03-02 00:15:00,
2013-03-01 16:20:00,73.3,50.7,30.26,NNW,336,3.0,8.0,45,0.00,,,0.01,369,Wunderground v.1.15,2013-03-02 00:20:00,
2013-03-01 16:30:00,72.8,53.6,30.26,SSW,213,3.0,4.0,51,0.00,,,0.01,260,Wunderground v.1.15,2013-03-02 00:30:00,
2013-03-01 16:40:00,67.4,51.6,30.26,SSW,213,4.0,4.0,57,0.00,,,0.01,253,Wunderground v.1.15,2013-03-02 00:40:00,
2013-03-01 16:45:00,67.9,53.0,30.25,West,266,3.0,4.0,59,0.00,,,0.01,274,Wunderground v.1.15,2013-03-02 00:45:00,
2013-03-01 16:55:00,67.6,53.7,30.25,SSW,213,0.0,2.0,61,0.00,,,0.01,223,Wunderground v.1.15,2013-03-02 00:55:00,
2013-03-01 17:00:00,67.8,53.4,30.25,SSW,213,0.0,0.0,60,0.00,,,0.01,134,Wunderground v.1.15,2013-03-02 01:00:00,
2013-03-01 17:10:00,66.7,54.1,30.26,West,270,1.0,2.0,64,0.00,,,0.01,62,Wunderground v.1.15,2013-03-02 01:10:00,
2013-03-01 17:20:00,60.6,52.3,30.25,West,266,2.0,2.0,74,0.00,,,0.01,98,Wunderground v.1.15,2013-03-02 01:20:00,
2013-03-01 17:30:00,58.5,52.4,30.26,West,272,3.0,4.0,80,0.00,,,0.01,56,Wunderground v.1.15,2013-03-02 01:30:00,
2013-03-01 17:35:00,58.2,52.4,30.25,West,264,3.0,4.0,81,0.00,,,0.01,49,Wunderground v.1.15,2013-03-02 01:35:00,
2013-03-01 17:45:00,58.5,53.0,30.25,West,262,2.0,2.0,82,0.00,,,0.01,33,Wunderground v.1.15,2013-03-02 01:45:00,
2013-03-01 17:50:00,58.4,52.9,30.25,West,270,2.0,4.0,82,0.00,,,0.01,26,Wunderground v.1.15,2013-03-02 01:50:00,
2013-03-01 17:55:00,58.0,52.5,30.25,West,269,3.0,4.0,82,0.00,,,0.01,14,Wunderground v.1.15,2013-03-02 01:55:00,
2013-03-01 18:05:00,57.7,52.9,30.25,West,269,2.0,3.0,84,0.00,,,0.01,0,Wunderground v.1.15,2013-03-02 02:05:00,
2013-03-01 18:15:00,57.2,52.7,30.25,West,264,0.0,1.0,85,0.00,,,0.01,0,Wunderground v.1.15,2013-03-02 02:15:00,
2013-03-01 18:20:00,57.0,52.5,30.25,West,268,0.0,0.0,85,0.00,,,0.01,0,Wunderground v.1.15,2013-03-02 02:20:00,
2013-03-01 18:30:00,56.4,52.3,30.26,West,268,0.0,0.0,86,0.00,,,0.01,0,Wunderground v.1.15,2013-03-02 02:30:00,
2013-03-01 18:35:00,56.3,52.5,30.26,West,267,0.0,0.0,87,0.00,,,0.01,0,Wunderground v.1.15,2013-03-02 02:35:00,
2013-03-01 18:45:00,56.2,52.4,30.26,West,268,0.0,0.0,87,0.00,,,0.01,0,Wunderground v.1.15,2013-03-02 02:45:00,
2013-03-01 18:50:00,56.0,52.5,30.27,West,268,0.0,0.0,88,0.00,,,0.01,0,Wunderground v.1.15,2013-03-02 02:50:00,
2013-03-01 19:00:00,55.8,52.3,30.27,West,268,0.0,0.0,88,0.00,,,0.01,0,Wunderground v.1.15,2013-03-02 03:00:00,
2013-03-01 19:05:00,55.6,52.1,30.27,West,266,0.0,0.0,88,0.00,,,0.01,0,Wunderground v.1.15,2013-03-02 03:05:00,
2013-03-01 19:15:00,55.6,52.4,30.27,West,266,0.0,2.0,89,0.00,,,0.01,0,Wunderground v.1.15,2013-03-02 03:15:00,
2013-03-01 19:25:00,55.5,52.3,30.27,West,267,0.0,1.0,89,0.00,,,0.01,0,Wunderground v.1.15,2013-03-02 03:25:00,
2013-03-01 19:30:00,55.6,52.4,30.27,West,266,0.0,0.0,89,0.00,,,0.01,0,Wunderground v.1.15,2013-03-02 03:30:00,
2013-03-01 19:40:00,55.8,52.3,30.27,West,266,0.0,0.0,88,0.00,,,0.01,0,Wunderground v.1.15,2013-03-02 03:40:00,
2013-03-01 19:50:00,56.2,53.0,30.28,West,266,2.0,2.0,89,0.00,,,0.01,0,Wunderground v.1.15,2013-03-02 03:50:00,
2013-03-01 20:00:00,56.1,53.2,30.28,West,262,2.0,4.0,90,0.00,,,0.01,0,Wunderground v.1.15,2013-03-02 04:00:00,
2013-03-01 20:05:00,55.8,52.9,30.29,SSW,197,3.0,4.0,90,0.00,,,0.01,0,Wunderground v.1.15,2013-03-02 04:05:00,
2013-03-01 20:15:00,55.6,53.0,30.29,SSW,196,1.0,3.0,91,0.00,,,0.01,0,Wunderground v.1.15,2013-03-02 04:15:00,
2013-03-01 20:25:00,55.4,52.8,30.28,SSW,197,0.0,0.0,91,0.00,,,0.01,0,Wunderground v.1.15,2013-03-02 04:25:00,
2013-03-01 20:30:00,55.3,52.7,30.28,SSW,197,0.0,0.0,91,0.00,,,0.01,0,Wunderground v.1.15,2013-03-02 04:30:00,
2013-03-01 20:40:00,55.0,52.4,30.28,SSW,197,0.0,0.0,91,0.00,,,0.01,0,Wunderground v.1.15,2013-03-02 04:40:00,
2013-03-01 20:50:00,54.6,52.0,30.27,SSW,196,0.0,0.0,91,0.00,,,0.01,0,Wunderground v.1.15,2013-03-02 04:50:00,
2013-03-01 21:00:00,54.3,51.7,30.27,SSW,197,0.0,0.0,91,0.00,,,0.01,0,Wunderground v.1.15,2013-03-02 05:00:00,
2013-03-01 21:05:00,54.4,51.8,30.27,SSW,197,0.0,0.0,91,0.00,,,0.01,0,Wunderground v.1.15,2013-03-02 05:05:00,
2013-03-01 21:10:00,54.5,51.9,30.28,WSW,249,1.0,4.0,91,0.00,,,0.01,0,Wunderground v.1.15,2013-03-02 05:10:00,
2013-03-01 21:15:00,54.6,52.0,30.28,WNW,287,3.0,4.0,91,0.00,,,0.01,0,Wunderground v.1.15,2013-03-02 05:15:00,
2013-03-01 21:20:00,54.7,52.1,30.28,WNW,289,3.0,5.0,91,0.00,,,0.01,0,Wunderground v.1.15,2013-03-02 05:20:00,
2013-03-01 21:25:00,54.8,52.2,30.28,WNW,297,4.0,5.0,91,0.00,,,0.01,0,Wunderground v.1.15,2013-03-02 05:25:00,
2013-03-01 21:35:00,55.0,51.8,30.28,NW,320,4.0,6.0,89,0.00,,,0.01,0,Wunderground v.1.15,2013-03-02 05:35:00,
2013-03-01 21:45:00,55.4,51.6,30.28,NNW,332,4.0,4.0,87,0.00,,,0.01,0,Wunderground v.1.15,2013-03-02 05:45:00,
2013-03-01 21:50:00,55.5,51.4,30.28,NNW,345,4.0,4.0,86,0.00,,,0.01,0,Wunderground v.1.15,2013-03-02 05:50:00,
2013-03-01 22:00:00,55.7,50.9,30.28,North,355,3.0,3.0,84,0.00,,,0.01,0,Wunderground v.1.15,2013-03-02 06:00:00,
2013-03-01 22:10:00,55.5,50.4,30.28,North,354,4.0,4.0,83,0.00,,,0.01,0,Wunderground v.1.15,2013-03-02 06:10:00,
2013-03-01 22:20:00,55.3,50.2,30.28,North,355,3.0,3.0,83,0.00,,,0.01,0,Wunderground v.1.15,2013-03-02 06:20:00,
2013-03-01 22:25:00,55.1,50.0,30.28,North,353,2.0,3.0,83,0.00,,,0.01,0,Wunderground v.1.15,2013-03-02 06:25:00,
2013-03-01 22:35:00,54.9,49.8,30.28,North,353,2.0,2.0,83,0.00,,,0.01,0,Wunderground v.1.15,2013-03-02 06:35:00,
2013-03-01 22:40:00,54.7,49.6,30.28,North,355,2.0,2.0,83,0.00,,,0.01,0,Wunderground v.1.15,2013-03-02 06:40:00,
2013-03-01 22:50:00,54.4,49.3,30.28,North,355,2.0,2.0,83,0.00,,,0.01,0,Wunderground v.1.15,2013-03-02 06:50:00,
2013-03-01 23:00:00,54.2,49.5,30.27,North,353,2.0,3.0,84,0.00,,,0.01,0,Wunderground v.1.15,2013-03-02 07:00:00,
2013-03-01 23:10:00,54.1,49.4,30.27,North,355,3.0,4.0,84,0.00,,,0.01,0,Wunderground v.1.15,2013-03-02 07:10:00,
2013-03-01 23:20:00,54.0,49.3,30.27,North,355,5.0,5.0,84,0.00,,,0.01,0,Wunderground v.1.15,2013-03-02 07:20:00,
2013-03-01 23:25:00,54.0,49.3,30.27,North,355,5.0,5.0,84,0.00,,,0.01,0,Wunderground v.1.15,2013-03-02 07:25:00,
2013-03-01 23:30:00,53.9,49.2,30.27,North,355,4.0,4.0,84,0.00,,,0.01,0,Wunderground v.1.15,2013-03-02 07:30:00,
2013-03-01 23:40:00,53.6,48.9,30.27,North,354,4.0,4.0,84,0.00,,,0.01,0,Wunderground v.1.15,2013-03-02 07:40:00,
2013-03-01 23:50:00,53.4,48.7,30.27,North,355,4.0,5.0,84,0.00,,,0.01,0,Wunderground v.1.15,2013-03-02 07:50:00,